Regional Weather Roundup
Issued by NWS

Home | Current Version | Previous Version | Graphics & Text | Print | Product List | Glossary On
Versions: 1 2 3 4 5 6 7 8 9 10 11 12 13 14 15 16 17 18 19 20 21 22 23 24 25 26 27 28 29 30 31 32 33 34 35 36 37 38 39 40 41 42 43 44 45 46 47 48 49 50
000
ASUS43 KMPX 221801
RWRMN
WEATHER ROUNDUP FOR MINNESOTA
NATIONAL WEATHER SERVICE TWIN CITIES/CHANHASSEN MN
1200 PM CST SAT NOV 22 2014


NOTE: "FAIR" INDICATES FEW OR NO CLOUDS BELOW 12,000 FEET WITH NO
SIGNIFICANT WEATHER AND/OR OBSTRUCTIONS TO VISIBILITY. N/A MEANS
CURRENT SKY AND/OR WEATHER CONDITIONS ARE NOT AVAILABLE.

MNZ060>063-068>070-221900-
   Twin Cities Metro

CITY           SKY/WX    TMP DP  RH WIND       PRES   REMARKS
TWIN CITIES    CLOUDY    34  33  96 SW8       29.72F FOG     WCI  27
6HR MIN TEMP:  34; 6HR MAX TEMP:  36;

ST PAUL        CLOUDY    35  33  92 S8        29.74F FOG     WCI  29
CRYSTAL        CLOUDY    36  33  89 S8        29.70F FOG
BLAINE         CLOUDY    37  36  93 S13       29.71F FOG
LAKEVILLE      CLOUDY    34  34 100 SW5       29.72F FOG     WCI  30
EDEN PRAIRIE   CLOUDY    35  34  96 SW10      29.70F FOG     WCI  27
6HR MIN TEMP:  35; 6HR MAX TEMP:  36;

SOUTH ST PAUL  CLOUDY    36  33  91 S8        29.73F FOG
LAKE ELMO      CLOUDY    34  34 100 S8        29.73F FOG     WCI  27
$$
MNZ001>005-007-008-013>017-022>024-027-028-221900-
   Northwest Minnesota

CITY           SKY/WX    TMP DP  RH WIND       PRES   REMARKS
BEMIDJI        SUNNY     36  28  74 SE6       29.57F
HALLOCK          N/A     34  28  80 E5        29.55F WCI  30
ROSEAU         CLOUDY    36  30  80 SE5       29.57F
WARROAD        CLOUDY    32  28  86 NE8       29.59S FOG     WCI  25
THIEF RVR FALL SUNNY     30  27  86 SE6       29.57F WCI  24
CROOKSTON      SUNNY     34  28  80 S8        29.57F WCI  27
FOSSTON        SUNNY     37  28  70 S10       29.57F
DETROIT LAKES  SUNNY     39  30  70 S6        29.59F
MOORHEAD       SUNNY     43  30  61 S8        29.58F
PARK RAPIDS    SUNNY     40  30  67 S5        29.58F
MAHNOMEN       FAIR      37  30  77 S6        29.58S
$$
MNZ006-009>011-018-025>026-221900-
   North Central Minnesota

CITY           SKY/WX    TMP DP  RH WIND       PRES   REMARKS
BAUDETTE       CLOUDY    35  29  78 S5        29.58F WCI  31
FLAG ISLAND    CLOUDY    30  27  86 CALM      29.58F
INTL FALLS     CLOUDY    36  29  75 S6        29.59F
6HR MIN TEMP:  30; 6HR MAX TEMP:  37;

WASKISH        MOSUNNY   39  30  70 CALM      29.58F
BIG FORK       SUNNY     39  28  65 CALM      29.59F
LONGVILLE      SUNNY     41  28  60 SE5       29.60F
GRAND RAPIDS   SUNNY     34  27  75 SE7       29.61F WCI  28
CRANE LAKE     CLOUDY    34  28  80 S3        29.63S
ORR            CLOUDY    34  27  75 CALM      29.58F
COOK           CLOUDY    34  28  80 S3        29.62S
WALKER         FAIR      37  28  71 S3        29.60S
$$
MNZ012-019>021-037-221900-
   Northeast Minnesota

CITY           SKY/WX    TMP DP  RH WIND       PRES   REMARKS
DULUTH         CLOUDY    32  28  86 SW7       29.65F FOG     WCI  26
6HR MIN TEMP:  28; 6HR MAX TEMP:  32;

ELY            CLOUDY    32  28  86 SW3       29.62F FOG
HIBBING        CLOUDY    33  29  85 S5        29.62F FOG     WCI  29
EVELETH        CLOUDY    32  32 100 S3        29.64F FOG
DULUTH HARBOR  CLOUDY    36  32  87 CALM      29.69F
TWO HARBORS    SUNNY     39  30  70 SW6       29.63F
SILVER BAY     MOSUNNY   37  30  75 SW3       29.63F
GRAND MARAIS     N/A     36  31  82 W8        29.65F
G MARAIS ARPRT CLOUDY    28  27  93 SW5       29.60F WCI  23
$$
MNZ029>031-032-039>041-046>048-054>057-064-221900-
   West Central Minnesota

CITY           SKY/WX    TMP DP  RH WIND       PRES   REMARKS
FERGUS FALLS   SUNNY     36  27  69 S7        29.61F
WHEATON        MOSUNNY   32  27  80 SE9       29.61F WCI  24
MORRIS         SUNNY     34  28  80 SE10      29.61F WCI  26
ALEXANDRIA     SUNNY     38  29  70 S7        29.61F
ELBOW LAKE       N/A     33  29  85 SE8       29.60S WCI  26
WADENA         SUNNY     41  30  65 S3        29.59F
GLENWOOD       SUNNY     37  30  75 S13       29.63F
APPLETON       SUNNY     39  30  70 S7        29.62F
BENSON         SUNNY     34  28  80 S9        29.63F WCI  26
ORTONVILLE     SUNNY     36  27  69 SE8       29.60F
MADISON        SUNNY     41  34  75 S10       29.61F
WILLMAR        FOG       34  32  93 S9        29.67F VSB 1/4 WCI  26
$$
MNZ033>034-036-042>043-049>051-058-059-221900-
   Central Minnesota

CITY           SKY/WX    TMP DP  RH WIND       PRES   REMARKS
ST CLOUD       CLOUDY    34  31  88 S13       29.67F FOG     WCI  25
6HR MIN TEMP:  23; 6HR MAX TEMP:  34;

SAUK CENTRE    FAIR      34  29  82 S9        29.64F WCI  27
PAYNESVILLE    FOG       29  29 100 SE8       29.67F VSB 3/4 WCI  21
AITKIN         SUNNY     39  30  70 S7        29.62F
PINE RIVER     SUNNY     37  30  75 SE6       29.64F
BRAINERD       SUNNY     35  28  75 S10       29.63F WCI  27
STAPLES        SUNNY     39  28  65 S9        29.61F
LONG PRAIRIE   FAIR      36  28  75 S8        29.63F
LITTLE FALLS   SUNNY     36  28  75 SE7       29.65F
LITCHFIELD     FOG       34  34 100 S3        29.68F VSB 3/4
BUFFALO        CLOUDY    34  32  93 S7        29.71F FOG     WCI  28
MAPLE LAKE     CLOUDY    35  34  96 S7        29.70F FOG     WCI  29
$$
MNZ037-044-045-052-053-221900-
   East Central Minnesota

CITY           SKY/WX    TMP DP  RH WIND       PRES   REMARKS
PRINCETON      CLOUDY    36  32  87 S7        29.69F FOG
MORA             N/A    N/A N/A N/A MISG        N/A
CAMBRIDGE      CLOUDY    37  28  70 S7        29.68F
RUSH CITY      CLOUDY    36  32  86 S9        29.70F
MOOSE LAKE     CLOUDY    34  30  86 CALM      29.65F FOG
HINCKLEY       CLOUDY    36  32  87 S9        29.69F FOG
CLOQUET        CLOUDY    34  30  86 S8        29.65F FOG     WCI  27
MCGREGOR       SUNNY     37  30  75 S8        29.64F
$$
MNZ071>073-080-081-089-090-097-098-221900-
   Southwest Minnesota

CITY           SKY/WX    TMP DP  RH WIND       PRES   REMARKS
MONTEVIDEO     SUNNY     39  32  75 S10       29.64F
GRANITE FALLS  SUNNY     36  32  85 S12       29.66F
CANBY          SUNNY     40  32  72 SW7       29.61F
MARSHALL       SUNNY     37  30  75 S15       29.64F
REDWOOD FALLS  CLOUDY    35  33  92 S12       29.67F FOG     WCI  27
OLIVIA         CLOUDY    34  32  93 S8        29.67F FOG     WCI  27
PIPESTONE      SNOW      34  34 100 S13       29.64F VSB<1/4 WCI  25
WINDOM         FOG       36  36 100 SW14      29.68F VSB 3/4
WORTHINGTON    CLOUDY    34  32  93 SW14      29.68F VSB 1/4 WCI  24
JACKSON        FOG       36  34  93 SW14G21   29.70F VSB 1
TRACY          CLOUDY    36  35  93 S16       29.64F FOG
SLAYTON        FOG       33  33 100 S14       29.67F VSB 1/4 WCI  23
$$
MNZ065>067-074>077-082>085-091>093-221900-
   South Central Minnesota

CITY           SKY/WX    TMP DP  RH WIND       PRES   REMARKS
MANKATO        CLOUDY    36  30  80 S13       29.72F
NEW ULM          N/A     36  36 100 S8        29.69F FOG
ST JAMES       CLOUDY    37  36  93 S10       29.71F FOG
FAIRMONT       CLOUDY    36  32  87 SW12      29.72F
GLENCOE        CLOUDY    35  35  99 S10       29.69F FOG     WCI  27
FARIBAULT      CLOUDY    36  34  93 S8        29.73F FOG
OWATONNA       CLOUDY    36  34  93 S10       29.73F FOG
WASECA         CLOUDY    36  32  87 S9        29.74F FOG
ALBERT LEA     FOG       36  36 100 S9        29.74F VSB 1
$$
MNZ078>079-086>088-094>096-221900-
   Southeast Minnesota

CITY           SKY/WX    TMP DP  RH WIND       PRES   REMARKS
ROCHESTER      FOG       36  35  96 S14       29.75F VSB 1/2
6HR MIN TEMP:  33; 6HR MAX TEMP:  36;

RED WING         N/A     37  36  93 SW3       29.74F FOG
STANTON        CLOUDY    37  34  90 S10G17    29.72F FOG
DODGE CENTER   CLOUDY    36  36 100 SW15      29.73F FOG
WINONA         CLOUDY    37  36  93 SW6       29.78F FOG
AUSTIN         FOG       36  34  93 S12       29.75S VSB<1/4
PRESTON        FOG       35  34  97 S14       29.76F VSB 1/2 WCI  25
$$
ABBREVIATIONS USED IN REMARKS
   TC - TEMPERATURES IN CELSIUS
  WCI - WIND CHILL INDEX
   HX - HEAT INDEX
  VSB - VISIBILITY
$$


USA.gov is the U.S. government's official web portal to all federal, state and local government web resources and services.